Location: Clanezzo
(45.7500°N, 9.6000°E)
Time: 03:27:20
(UTC+00:00)

EO-79 - Pass Details

Date: 08 July 2022
Orbit: 588 x 603 km, 98.0° (Epoch: 13 August)

Event Time Altitude Azimuth Distance (km) Brightness Sun altitude
Rises 00:30:43 0° 21° (NNE) 2,862 ? -20.2°
Reaches altitude 10° 00:33:04 10° 31° (NNE) 1,956 ? -20.1°
Maximum altitude 00:36:56 34° 97° (E) 1,012 ? -19.9°
Enters shadow 00:38:24 26° 136° (SE) 1,194 ? -19.8°
